THOR ABLESTAR DEB, 299

Orbit data source: Space-Track

THOR ABLESTAR DEB, 299 is space debris in LEO originally from a launch on Thu, 29 Jun 1961 UTC launched from the Air Force Eastern Test Range (AFETR). Debris objects in space refer to the collection of defunct objects orbiting the Earth. Examples of debris include non-operational satellites, rocket bodies, and fragments generated from explosions, collisions, or faulty payload assembly.

Loading next visibility...
Identifier
299, 1961-015CQ
Orbit
LEO
Country
Flag of USUS
Related business
Manufacturer
Unknown
Mission
Spacecraft
Bus & Motor
Unknown
Mass
Unknown
Launch date (UTC)
1961-06-29 (64 years ago)
Launch vehicle
Unknown
Launch site
Air Force Eastern Test Range (AFETR)
Object type
Payload
Rocket body
Debris
Shape & HBR
Unknown
Radar Cross Section
Small (<0.1 m²)

Expand to show TLE details & history
Last TLE update: 18 hours ago

TLE from 18 hours ago
0 THOR ABLESTAR DEB
1 00299U 61015CQ  25260.99140592  .00000052  00000-0  12458-3 0  9997
2 00299  67.1679 305.3075 0189520 141.8137 219.6537 13.68863527191802
Epoch: 2025-09-17T23:47Z
TLE epoch observation values (Epoch: 2025-09-17T23:47:37.471Z)
Latitude
-0.00004°
Longitude
-48.75806°
Altitude
1,114.518 km
Speed
7.242 km/s
True Right ascension
20h 21m 13s
True Declination
0° 00' 00"
Sunlit
Object was in full shadow at epoch
Visualization orbit readout
Latitude
Unknown
Longitude
Unknown
Altitude
Unknown
Speed
Unknown
Apparent Right ascension
Unknown
Apparent Declination
Unknown
Sunlit
N/A
Visualization observer readout
Local Sidereal Time
11:05:03
Azimuth
Unknown
Elevation
Unknown
Doppler factor
Unknown
Orbital elements
Apogee altitude
1,141.891 km
Perigee altitude
862.153 km
Semi-major axis
7,380.159 km
Eccentricity
0.01895
Inclination
67.1679°
RAAN
305.3075°
Arg. of periapsis
141.8137°
True anomaly
218.29278°
Mean anomaly
219.6537°
Eccentric anomaly
218.97077°
Mean motion
3.4233 °/min
Orbital period
105.16 mins
BSTAR
0.00012458
Loading maneuver chart data...
Computing Atmospheric mass density...

Documentation

Showing up to 5 results
|